Location: Valdosta
(30.8330°N, 83.2790°W)
Time: 03:33:11
(UTC-05:00)

Amateur Radio Satellites - All Passes

Search period start: 04 March 2015 03:03
Search period end: 05 March 2015 03:03
Location: Valdosta, 30.8330°N, 83.2790°W

Satellite Date Start Highest point End Downlink Frequencies (MHz)
Time Altitude Azimuth
SO-50 04 Mar 03:04:38 03:05:06 10° 315° (NW) 03:05:17 436.795
HORYU 2 04 Mar 03:06:06 03:08:56 17° 94° (E) 03:11:57 437.375
BEESAT 3 04 Mar 03:36:41 03:39:56 22° 249° (WSW) 03:43:01 437.485
MOZHAYETS 4 04 Mar 04:02:57 04:06:52 30° 73° (ENE) 04:10:52
BEESAT 2 04 Mar 04:05:06 04:06:59 12° 251° (WSW) 04:08:38 435.950
JUGNU 04 Mar 04:08:29 04:13:28 28° 183° (S) 04:18:28 437.505
AIST 2 04 Mar 04:08:44 04:12:35 34° 247° (WSW) 04:16:19 435.215
JAS-2 04 Mar 04:11:11 04:18:07 37° 96° (E) 04:25:17 435.910
SRMSAT 04 Mar 04:12:41 04:17:39 27° 175° (S) 04:22:38 437.500
YUBILEINY 04 Mar 04:21:29 04:30:12 64° 268° (W) 04:38:50 435.215
Gurwin Techsat 1B 04 Mar 04:21:51 04:25:25 18° 291° (WNW) 04:28:46 435.225
AO-7 04 Mar 04:23:04 04:31:11 58° 103° (ESE) 04:39:18 29.400- 29.500
M-CUBED/EXP-1 PRIME 04 Mar 04:36:49 04:39:54 37° 257° (WSW) 04:43:02 437.505
AUBIESAT-1 04 Mar 04:37:25 04:40:33 42° 256° (WSW) 04:43:46 437.475
HORYU 2 04 Mar 04:41:43 04:45:41 32° 287° (WNW) 04:49:36 437.375
PCSat 04 Mar 05:13:18 05:16:48 18° 53° (NE) 05:20:28 145.827
MOZHAYETS 4 04 Mar 05:40:51 05:44:10 19° 266° (W) 05:47:19
JAS-2 04 Mar 05:56:04 06:03:04 40° 289° (WNW) 06:10:08 435.910
JUGNU 04 Mar 05:57:45 06:02:00 20° 193° (SSW) 06:06:12 437.505
SRMSAT 04 Mar 06:01:23 06:06:22 27° 185° (S) 06:11:20 437.500
CUBESAT XI-V 04 Mar 06:05:33 06:10:00 47° 75° (ENE) 06:14:33 437.345
AIST 1 04 Mar 06:11:01 06:11:31 10° 88° (E) 06:12:20
PRISM 04 Mar 06:11:16 06:15:19 59° 76° (ENE) 06:19:26 437.425
RS-15 04 Mar 06:11:31 06:16:39 14° 29° (NNE) 06:22:34 29.354- 29.394
AO-7 04 Mar 06:16:54 06:23:33 26° 297° (WNW) 06:29:54 29.400- 29.500
Cubesat XI-IV 04 Mar 06:38:48 06:44:06 63° 101° (E) 06:49:24 437.490
CUTE-I 04 Mar 06:47:16 06:52:38 76° 102° (ESE) 06:57:58 437.470
STRAND 1 04 Mar 06:48:05 06:53:13 85° 79° (E) 06:58:24 437.568
PCSat 04 Mar 06:55:19 07:00:35 52° 249° (WSW) 07:05:47 145.827
AIST 1 04 Mar 07:44:39 07:48:48 44° 279° (W) 07:53:00
CUBESAT XI-V 04 Mar 07:45:41 07:47:47 12° 269° (W) 07:49:36 437.345
SRMSAT 04 Mar 07:51:02 07:55:03 18° 194° (SSW) 07:58:58 437.500
HO-68 04 Mar 07:53:25 07:56:26 14° 90° (E) 08:00:03 435.675
O/OREOS (USA 219) 04 Mar 07:57:01 07:57:40 10° 100° (E) 07:58:40 437.305
ISS 04 Mar 08:13:53 08:17:04 60° 315° (NW) 08:20:16 145.825
GOMX 1 04 Mar 08:19:53 08:22:02 14° 92° (E) 08:24:22 467.674
Cubesat XI-IV 04 Mar 08:21:12 08:23:45 13° 293° (WNW) 08:25:58 437.490
RS-15 04 Mar 08:21:21 08:32:34 56° 56° (ENE) 08:44:21 29.354- 29.394
BRITE-PL 04 Mar 08:22:23 08:25:59 25° 95° (E) 08:29:32 437.365/2234.400
CUTE-I 04 Mar 08:30:51 08:32:10 11° 294° (WNW) 08:33:05 437.470
COMPASS 1 04 Mar 08:34:02 08:35:59 13° 92° (E) 08:38:11 437.405
GONETS M04 04 Mar 08:34:26 08:42:04 34° 75° (ENE) 08:49:57
DOVE 4 04 Mar 08:46:07 08:49:06 20° 94° (E) 08:52:11 437.250
SEEDS 04 Mar 09:02:12 09:06:09 39° 98° (E) 09:10:09 437.485
CANX-2 04 Mar 09:07:56 09:12:10 64° 100° (E) 09:16:24 2200.000
TIGRISAT 04 Mar 09:20:42 09:21:31 11° 70° (ENE) 09:22:37 435.000
CUTE 1.7 + AOD 2 04 Mar 09:26:15 09:30:31 82° 283° (WNW) 09:34:47 437.475
DELFI C3 04 Mar 09:27:14 09:29:54 17° 94° (E) 09:32:44 145.870
O/OREOS (USA 219) 04 Mar 09:32:16 09:36:42 51° 291° (WNW) 09:41:10 437.305
ANTELSAT 04 Mar 09:33:20 09:36:00 16° 71° (ENE) 09:38:48 437.575/2403.000
HO-68 04 Mar 09:37:46 09:44:59 81° 286° (WNW) 09:52:10 435.675
UWE-3 04 Mar 09:46:28 09:49:44 23° 96° (E) 09:53:07 435.000/436.395/437.385
NANOSAT C BR1 04 Mar 09:56:26 09:58:55 16° 71° (ENE) 10:01:34 145.865
GOMX 1 04 Mar 09:56:34 10:00:23 31° 287° (WNW) 10:04:02 467.674
SO-50 04 Mar 09:56:54 10:00:22 19° 51° (NE) 10:03:57 436.795
BRITE-PL 04 Mar 10:01:17 10:04:24 19° 290° (WNW) 10:07:17 437.365/2234.400
AAUSAT CUBESAT 2 04 Mar 10:03:52 10:07:55 46° 284° (WNW) 10:11:56 437.432
COMPASS 1 04 Mar 10:08:00 10:11:52 35° 285° (WNW) 10:15:42 437.405
Oscar 11 04 Mar 10:08:40 10:13:00 82° 101° (ESE) 10:17:21 145.826/435.025
CINEMA 3 04 Mar 10:18:00 10:22:03 53° 284° (WNW) 10:26:06 145.822/145.860
DOVE 4 04 Mar 10:23:33 10:26:54 23° 288° (WNW) 10:30:05 437.250
CUBEBUG 2 04 Mar 10:26:55 10:31:04 83° 285° (WNW) 10:35:16 437.445
50 SAT 04 Mar 10:28:07 10:30:51 18° 95° (E) 10:33:43 437.505
QB50P1 04 Mar 10:28:08 10:32:06 38° 74° (ENE) 10:36:06 145.935-145.965
UNISAT 6 04 Mar 10:29:15 10:33:41 81° 77° (ENE) 10:38:02 437.425
BUGSAT 1 04 Mar 10:29:39 10:33:18 29° 73° (ENE) 10:37:01 437.445
GONETS M04 04 Mar 10:30:55 10:39:01 42° 270° (W) 10:47:00
QB50P2 04 Mar 10:32:29 10:36:34 44° 75° (ENE) 10:40:40 145.880/145.840
RS-15 04 Mar 10:34:23 10:44:45 37° 252° (WSW) 10:55:05 29.354- 29.394
DX 1 04 Mar 10:35:57 10:40:19 73° 102° (ESE) 10:44:39 434.975-435.025
SEEDS 04 Mar 10:39:38 10:41:42 13° 290° (WNW) 10:43:33 437.485
DUCHIFAT 1 04 Mar 10:45:49 10:50:04 64° 76° (ENE) 10:54:19 145.980
CUBEBUG 1 04 Mar 10:46:45 10:48:38 13° 92° (E) 10:50:45 437.445
AISAT 04 Mar 10:47:32 10:51:36 36° 98° (E) 10:55:40 437.250
HUMSAT D 04 Mar 10:48:24 10:52:26 54° 100° (E) 10:56:29 437.325/437.525
TIGRISAT 04 Mar 10:53:37 10:57:56 51° 260° (W) 11:02:10 435.000
VELOX 1 04 Mar 10:56:04 11:00:18 44° 99° (E) 11:04:31 145.980
FUNcube-1 04 Mar 10:57:08 11:01:12 53° 283° (WNW) 11:05:16 145.935
ZACube-1 04 Mar 10:59:05 11:03:06 49° 284° (WNW) 11:07:09 437.345
CUSAT 1 04 Mar 11:00:51 11:03:08 26° 80° (E) 11:05:39 437.405
DELFI C3 04 Mar 11:01:41 11:05:08 26° 287° (WNW) 11:08:30 145.870
UKube-1 04 Mar 11:03:22 11:07:36 53° 285° (WNW) 11:11:49 .
POPSAT HIP 1 04 Mar 11:07:43 11:12:00 65° 259° (W) 11:16:15 437.405
POLYITAN 1 04 Mar 11:08:09 11:12:24 63° 259° (W) 11:16:39 437.675
ANTELSAT 04 Mar 11:08:36 11:12:36 32° 262° (W) 11:16:30 437.575/2403.000
ESTCUBE 1 04 Mar 11:18:20 11:22:32 37° 98° (E) 11:26:45 437.505/2401.250
UWE-3 04 Mar 11:23:05 11:26:13 20° 288° (WNW) 11:29:16 435.000/436.395/437.385
HO-68 04 Mar 11:29:19 11:31:49 12° 300° (WNW) 11:33:47 435.675
NANOSAT C BR1 04 Mar 11:30:39 11:34:33 33° 262° (W) 11:38:24 145.865
SO-50 04 Mar 11:36:28 11:41:09 42° 247° (WSW) 11:45:44 436.795
50 SAT 04 Mar 12:02:40 12:05:49 23° 287° (WNW) 12:08:55 437.505
BUGSAT 1 04 Mar 12:05:53 12:08:50 17° 266° (W) 12:11:37 437.445
QB50P1 04 Mar 12:06:05 12:08:11 13° 268° (W) 12:10:01 145.935-145.965
QB50P2 04 Mar 12:11:26 12:12:45 11° 269° (W) 12:13:47 145.880/145.840
CUBEBUG 1 04 Mar 12:21:07 12:25:15 40° 286° (WNW) 12:29:18 437.445
AISAT 04 Mar 12:25:15 12:27:57 15° 290° (WNW) 12:30:27 437.250
DANDE 04 Mar 12:25:52 12:26:58 12° 265° (W) 12:27:57 436.750
Oscar 19 04 Mar 12:32:12 12:36:17 25° 71° (ENE) 12:40:29 437.125/150
VELOX 1 04 Mar 12:34:29 12:36:32 13° 291° (WNW) 12:38:20 145.980
TISAT 1 04 Mar 12:43:10 12:47:22 70° 101° (E) 12:51:32 437.305
SPROUT 04 Mar 12:45:47 12:50:06 87° 105° (ESE) 12:54:21 437.525
ESTCUBE 1 04 Mar 12:56:19 12:59:09 16° 290° (WNW) 13:01:47 437.505/2401.250
SWISSCUBE 04 Mar 13:12:39 13:16:12 21° 95° (E) 13:19:53 437.505
BEESAT 04 Mar 13:20:44 13:24:31 24° 95° (E) 13:28:24 436.000
ITUPSAT 1 04 Mar 13:48:38 13:53:18 49° 99° (E) 13:57:57 437.325
Gurwin Techsat 1B 04 Mar 13:56:25 14:01:20 42° 73° (ENE) 14:06:20 435.225
Oscar 19 04 Mar 14:11:03 14:15:33 29° 264° (W) 14:19:57 437.125/150
ITAMSAT 1 04 Mar 14:12:40 14:17:53 86° 79° (ENE) 14:23:09 435.822/435.867
KKS-1 04 Mar 14:38:02 14:41:50 28° 97° (E) 14:45:41 437.445
STARS 04 Mar 14:40:34 14:43:33 18° 94° (E) 14:46:41 437.465
ISS 04 Mar 14:47:11 14:48:25 12° 32° (NNE) 14:49:45 145.825
SWISSCUBE 04 Mar 14:49:53 14:54:07 30° 288° (WNW) 14:58:14 437.505
BEESAT 04 Mar 14:58:17 15:02:20 27° 288° (WNW) 15:06:17 436.000
AO-7 04 Mar 15:15:56 15:23:47 49° 68° (ENE) 15:31:43 29.400- 29.500
YUBILEINY 04 Mar 15:20:12 15:27:18 31° 87° (E) 15:34:44 435.215
ITUPSAT 1 04 Mar 15:28:18 15:30:50 14° 292° (WNW) 15:33:07 437.325
HORYU 2 04 Mar 15:34:08 15:38:33 69° 259° (WSW) 15:42:57 437.375
Gurwin Techsat 1B 04 Mar 15:37:50 15:41:32 18° 267° (W) 15:45:01 435.225
BEESAT 3 04 Mar 15:48:10 15:50:35 16° 110° (ESE) 15:53:11 437.485
VERMONT LUNAR 04 Mar 16:02:28 16:05:53 60° 148° (SSE) 16:09:20 437.305
JAS-2 04 Mar 16:02:37 16:07:51 55° 73° (ENE) 16:13:42 435.910
MOZHAYETS 4 04 Mar 16:05:51 16:06:57 11° 90° (E) 16:08:23
BEESAT 2 04 Mar 16:14:48 16:18:18 28° 112° (ESE) 16:21:54 435.950
KKS-1 04 Mar 16:15:07 16:18:19 19° 289° (WNW) 16:21:22 437.445
STARS 04 Mar 16:16:17 16:20:04 28° 287° (WNW) 16:23:45 437.465
PHONESAT 2.4 04 Mar 16:20:45 16:24:06 36° 145° (SE) 16:27:29 2401.200-2431.200
ISS 04 Mar 16:21:57 16:25:09 59° 228° (SW) 16:28:20 145.825
M-CUBED/EXP-1 PRIME 04 Mar 16:22:45 16:26:22 24° 101° (E) 16:30:15 437.505
AUBIESAT-1 04 Mar 16:23:09 16:26:34 22° 100° (E) 16:30:15 437.475
AIST 2 04 Mar 16:25:26 16:27:06 12° 109° (ESE) 16:29:00 435.215
AO-7 04 Mar 17:09:37 17:16:49 30° 263° (W) 17:23:46 29.400- 29.500
YUBILEINY 04 Mar 17:15:33 17:23:52 46° 282° (WNW) 17:32:10 435.215
BEESAT 3 04 Mar 17:24:45 17:28:26 31° 303° (WNW) 17:32:08 437.485
MOZHAYETS 4 04 Mar 17:40:01 17:44:33 52° 285° (WNW) 17:49:03
VERMONT LUNAR 04 Mar 17:40:55 17:43:57 27° 343° (NNW) 17:46:59 437.305
JAS-2 04 Mar 17:50:44 17:53:39 14° 272° (W) 17:56:19 435.910
BEESAT 2 04 Mar 17:53:29 17:56:31 19° 307° (NW) 17:59:28 435.950
Cubesat XI-IV 04 Mar 17:55:19 18:00:34 60° 75° (ENE) 18:05:53 437.490
M-CUBED/EXP-1 PRIME 04 Mar 17:57:29 18:01:12 26° 291° (WNW) 18:05:01 437.505
AUBIESAT-1 04 Mar 17:57:31 18:01:22 29° 291° (WNW) 18:05:21 437.475
AIST 1 04 Mar 17:57:56 18:01:32 25° 77° (ENE) 18:05:12
PHONESAT 2.4 04 Mar 17:59:08 18:02:33 37° 339° (NNW) 18:05:59 2401.200-2431.200
PRISM 04 Mar 18:01:12 18:03:08 13° 93° (E) 18:05:19 437.425
AIST 2 04 Mar 18:01:19 18:05:22 43° 301° (WNW) 18:09:27 435.215
CUTE-I 04 Mar 18:03:35 18:08:54 73° 76° (ENE) 18:14:18 437.470
CUBESAT XI-V 04 Mar 18:08:51 18:12:04 19° 93° (E) 18:15:25 437.345
STRAND 1 04 Mar 19:04:26 19:09:20 45° 99° (E) 19:14:15 437.568
VERMONT LUNAR 04 Mar 19:20:16 19:22:34 16° 359° (N) 19:24:51 437.305
GOMX 1 04 Mar 19:23:04 19:25:11 13° 70° (ENE) 19:27:36 467.674
BRITE-PL 04 Mar 19:27:01 19:31:17 23° 72° (ENE) 19:35:36 437.365/2234.400
PRISM 04 Mar 19:34:55 19:38:49 36° 286° (WNW) 19:42:40 437.425
AIST 1 04 Mar 19:35:53 19:39:04 19° 270° (W) 19:42:04
Cubesat XI-IV 04 Mar 19:38:45 19:41:09 12° 269° (W) 19:43:10 437.490
PHONESAT 2.4 04 Mar 19:39:02 19:41:38 18° 355° (N) 19:44:12 2401.200-2431.200
CUBESAT XI-V 04 Mar 19:45:23 19:49:36 32° 287° (WNW) 19:53:42 437.345
DOVE 4 04 Mar 19:46:58 19:49:41 15° 71° (ENE) 19:52:35 437.250
O/OREOS (USA 219) 04 Mar 19:47:40 19:52:13 67° 253° (WSW) 19:56:42 437.305
PCSat 04 Mar 19:48:16 19:53:21 45° 111° (ESE) 19:58:31 145.827
SEEDS 04 Mar 19:50:51 19:52:57 14° 71° (ENE) 19:55:17 437.485
CANX-2 04 Mar 19:56:25 19:59:40 23° 73° (ENE) 20:03:01 2200.000
HO-68 04 Mar 20:00:19 20:06:56 44° 70° (ENE) 20:13:40 435.675
CUTE 1.7 + AOD 2 04 Mar 20:14:07 20:17:53 33° 74° (ENE) 20:21:43 437.475
UWE-3 04 Mar 20:40:57 20:41:56 11° 70° (ENE) 20:43:12 435.000/436.395/437.385
STRAND 1 04 Mar 20:44:57 20:48:13 17° 292° (WNW) 20:51:15 437.568
AAUSAT CUBESAT 2 04 Mar 20:49:19 20:53:20 54° 76° (ENE) 20:57:23 437.432
COMPASS 1 04 Mar 20:53:35 20:57:42 74° 77° (ENE) 21:01:51 437.405
GOMX 1 04 Mar 20:57:32 21:02:56 64° 259° (W) 21:08:06 467.674
VERMONT LUNAR 04 Mar 20:58:14 21:01:11 25° 16° (NNE) 21:04:09 437.305
Oscar 11 04 Mar 20:58:27 21:02:12 30° 74° (ENE) 21:06:00 145.826/435.025
BRITE-PL 04 Mar 21:04:20 21:09:36 38° 263° (W) 21:14:39 437.365/2234.400
CINEMA 3 04 Mar 21:13:41 21:18:30 70° 77° (ENE) 21:23:06 145.822/145.860
PHONESAT 2.4 04 Mar 21:17:58 21:20:52 22° 12° (NNE) 21:23:47 2401.200-2431.200
CUBEBUG 2 04 Mar 21:19:48 21:24:02 41° 75° (ENE) 21:28:12 437.445
DOVE 4 04 Mar 21:22:07 21:27:10 49° 261° (W) 21:31:58 437.250
SEEDS 04 Mar 21:24:43 21:28:32 34° 263° (W) 21:32:20 437.485
DX 1 04 Mar 21:26:32 21:30:22 31° 73° (ENE) 21:34:16 434.975-435.025
GONETS M04 04 Mar 21:28:15 21:36:20 47° 90° (E) 21:44:32
CANX-2 04 Mar 21:32:17 21:35:33 21° 265° (W) 21:38:43 2200.000
PCSat 04 Mar 21:33:02 21:37:02 20° 306° (NW) 21:40:53 145.827
HUMSAT D 04 Mar 21:36:05 21:39:03 19° 72° (ENE) 21:42:06 437.325/437.525
AISAT 04 Mar 21:41:14 21:44:10 18° 71° (ENE) 21:47:15 437.250
DELFI C3 04 Mar 21:43:32 21:47:33 90° 243° (WSW) 21:51:36 145.870
FUNcube-1 04 Mar 21:47:21 21:51:39 57° 76° (ENE) 21:55:52 145.935
HO-68 04 Mar 21:48:49 21:54:50 28° 264° (W) 22:00:39 435.675
VELOX 1 04 Mar 21:49:14 21:52:32 21° 71° (ENE) 21:55:59 145.980
ZACube-1 04 Mar 21:49:25 21:53:45 62° 77° (ENE) 21:58:01 437.345
CUTE 1.7 + AOD 2 04 Mar 21:51:38 21:53:58 14° 268° (W) 21:56:05 437.475
UKube-1 04 Mar 21:52:40 21:56:57 62° 76° (ENE) 22:01:16 .
ESTCUBE 1 04 Mar 22:13:44 22:16:46 19° 71° (ENE) 22:19:59 437.505/2401.250
UWE-3 04 Mar 22:13:48 22:18:10 51° 261° (W) 22:22:24 435.000/436.395/437.385
QB50P2 04 Mar 22:25:54 22:27:00 11° 91° (E) 22:28:25 145.880/145.840
UNISAT 6 04 Mar 22:27:14 22:30:45 25° 96° (E) 22:34:25 437.425
Oscar 11 04 Mar 22:35:41 22:38:29 16° 267° (W) 22:41:05 145.826/435.025
VERMONT LUNAR 04 Mar 22:35:50 22:39:18 69° 211° (SSW) 22:42:44 437.305
DUCHIFAT 1 04 Mar 22:37:43 22:40:11 16° 93° (E) 22:42:49 145.980
RS-15 04 Mar 22:37:52 22:48:28 60° 112° (ESE) 22:59:10 29.354- 29.394
50 SAT 04 Mar 22:43:01 22:47:00 84° 258° (WSW) 22:50:59 437.505
TIGRISAT 04 Mar 22:50:39 22:54:48 47° 99° (E) 22:59:02 435.000
PHONESAT 2.4 04 Mar 22:56:04 22:59:42 76° 28° (NNE) 23:03:18 2401.200-2431.200
CUBEBUG 2 04 Mar 22:58:42 23:00:56 13° 268° (W) 23:02:53 437.445
POPSAT HIP 1 04 Mar 22:58:59 23:02:40 30° 97° (E) 23:06:24 437.405
POLYITAN 1 04 Mar 22:59:38 23:03:22 31° 97° (E) 23:07:08 437.675
DX 1 04 Mar 23:03:43 23:06:42 17° 266° (W) 23:09:29 434.975-435.025
ANTELSAT 04 Mar 23:05:25 23:09:45 76° 101° (E) 23:14:11 437.575/2403.000
HUMSAT D 04 Mar 23:11:13 23:14:42 24° 264° (W) 23:18:06 437.325/437.525
CUBEBUG 1 04 Mar 23:11:20 23:15:46 83° 78° (ENE) 23:20:14 437.445
AISAT 04 Mar 23:16:31 23:20:34 32° 263° (W) 23:24:35 437.250
NANOSAT C BR1 04 Mar 23:20:52 23:25:02 58° 101° (E) 23:29:10 145.865
VELOX 1 04 Mar 23:25:11 23:29:00 26° 264° (W) 23:32:44 145.980
GONETS M04 04 Mar 23:25:58 23:33:26 30° 287° (WNW) 23:40:39
TISAT 1 04 Mar 23:30:39 23:34:10 26° 73° (ENE) 23:37:45 437.305
SPROUT 04 Mar 23:34:50 23:38:41 32° 74° (ENE) 23:42:35 437.525
DANDE 04 Mar 23:45:24 23:52:19 52° 97° (E) 23:57:38 436.750
ESTCUBE 1 04 Mar 23:49:26 23:53:28 31° 263° (W) 23:57:28 437.505/2401.250
BUGSAT 1 04 Mar 23:52:20 23:56:28 75° 283° (WNW) 00:00:31 437.445
QB50P1 04 Mar 23:54:25 23:58:30 49° 285° (WNW) 00:02:33 145.935-145.965
QB50P2 04 Mar 23:59:11 00:03:11 42° 285° (WNW) 00:07:09 145.880/145.840
CUSAT 1 05 Mar 00:01:31 00:08:13 90° 111° (ESE) 00:13:13 437.405
UNISAT 6 05 Mar 00:04:09 00:07:27 21° 288° (WNW) 00:10:41 437.425
SO-50 05 Mar 00:06:49 00:09:48 18° 110° (ESE) 00:13:00 436.795
DUCHIFAT 1 05 Mar 00:12:24 00:16:06 30° 287° (WNW) 00:19:45 145.980
SWISSCUBE 05 Mar 00:15:28 00:17:41 14° 68° (ENE) 00:20:11 437.505
JUGNU 05 Mar 00:17:50 00:21:27 17° 165° (SSE) 00:25:12 437.505
BEESAT 05 Mar 00:23:12 00:25:50 15° 69° (ENE) 00:28:42 436.000
TIGRISAT 05 Mar 00:29:47 00:31:15 11° 290° (WNW) 00:32:27 435.000
POPSAT HIP 1 05 Mar 00:35:39 00:38:23 16° 289° (WNW) 00:40:55 437.405
PHONESAT 2.4 05 Mar 00:35:40 00:37:52 15° 219° (SW) 00:39:58 2401.200-2431.200
POLYITAN 1 05 Mar 00:36:27 00:39:05 16° 289° (WNW) 00:41:32 437.675
Oscar 19 05 Mar 00:50:28 00:52:43 13° 92° (E) 00:55:19 437.125/150
ITUPSAT 1 05 Mar 00:50:30 00:54:38 30° 72° (ENE) 00:58:51 437.325
RS-15 05 Mar 00:51:48 01:01:28 34° 312° (NW) 01:10:59 29.354- 29.394
TISAT 1 05 Mar 01:06:48 01:09:58 19° 265° (W) 01:13:01 437.305
SPROUT 05 Mar 01:12:09 01:14:53 16° 267° (W) 01:17:25 437.525
DANDE 05 Mar 01:30:59 01:35:35 18° 283° (WNW) 01:39:13 436.750
KKS-1 05 Mar 01:32:26 01:34:45 14° 70° (ENE) 01:37:16 437.445
SO-50 05 Mar 01:45:53 01:50:05 35° 304° (WNW) 01:54:24 436.795
BEESAT 3 05 Mar 01:48:58 01:52:30 27° 56° (NE) 01:56:02 437.485
SWISSCUBE 05 Mar 01:50:35 01:55:12 48° 261° (W) 01:59:50 437.505
BEESAT 05 Mar 01:58:52 02:03:23 42° 261° (W) 02:07:55 436.000
JUGNU 05 Mar 02:05:06 02:09:57 26° 174° (S) 02:14:50 437.505
SRMSAT 05 Mar 02:12:02 02:16:08 19° 167° (SSE) 02:20:19 437.500
BEESAT 2 05 Mar 02:16:56 02:20:57 49° 60° (ENE) 02:24:55 435.950
Gurwin Techsat 1B 05 Mar 02:18:33 02:22:54 26° 95° (E) 02:27:22 435.225
Oscar 19 05 Mar 02:27:28 02:32:27 52° 286° (WNW) 02:37:25 437.125/150
AIST 2 05 Mar 02:28:41 02:32:07 24° 55° (NE) 02:35:33 435.215
ITUPSAT 1 05 Mar 02:28:57 02:32:34 21° 265° (W) 02:36:04 437.325
ITAMSAT 1 05 Mar 02:31:18 02:36:20 49° 100° (E) 02:41:21 435.822/435.867
